STARLINK-2039 (47655 NORAD) Tracking and Keplerian Element Data
This shows tracking and keplerian element data for the satellite.
Feedback or suggestion? Click here.
Element | Value |
Catalog | 47655 |
Name | STARLINK-2039 |
Epoch Orbit | 177 |
Epoch Day | 59.91667824 |
Epoch Year | 2021 |
RAAN | 38.6794 |
Inclination | 53.0516 |
Eccentricity | 0.0001151 |
Argument of Perigee | 73.2289 |
Mean Anonmoly | 138.8281 |
Mean Motion | 15.72731469 |
Decay Rate | -0.00971038 |
L1 | 1 47655U 21012AM 21059.91667824 -.00971038 00000-0 -77766-2 0 9998 |
L2 | 2 47655 53.0516 38.6794 0001151 73.2289 138.8281 15.72731469 1776 |
Live tracking and technical data element details for STARLINK-2039 (NORAD 47655). STARLINK-2039 can be tracked NOW for your location showing map with azimuth and elevation plus other details from your city location.
Track the satellite on the map from your city or location and see movement details for azimuth, elevation, latitude, longitude, range, height, and movement on the map or in text.
IsCatalogInMostPopularTable: catalog: 47655, numindb: 3
Update: records affected: 1
GetName: 47655 STARLINK-2039
Hit Count: updated at: Mon, 01 Mar 2021 16:54:43 GMT